[[{"header":{"parameterUnit":"m.s-1","parameterCategory":2,"la1":30.2992,"la2":30.254,"lo1":-89.0895,"lo2":-89.0443,"dy":0.0025,"dx":0.0025,"nx":19,"ny":19,"refTime":"2026-03-20T21:00:00:Z","depth":"0","parameterNumber":2,"parameterNumberName":"U-component_of_CURRENTS"},"data":[0,0,0,0.1185,0.1187,0.1278,0.1278,0.1339,0.134,0,0,0,0,0,0,0,0,0,0,0,0.1143,0.1144,0.1185,0.1188,0.1278,0.1278,0.1339,0.134,0,0,0,0,0,0,0,0,0,0,0,0.1142,0.1144,0.1145,0.1188,0.1278,0.1278,0.1339,0.1279,0,0,0,0,0,0,0,0,0,0,0.1196,0.1171,0.1143,0.1145,0.1189,0.1278,0.1278,0.1277,0.1283,0.1288,0,0.1313,0,0.1341,0.1344,0.1344,0,0,0,0.1168,0.1166,0.1198,0.1145,0.119,0.1278,0.1232,0.1281,0.1287,0.1296,0.1314,0.1317,0.1342,0.1345,0.1345,0.1437,0.1437,0,0,0.1163,0.1149,0.1194,0.1203,0.1227,0.1229,0.1235,0.1285,0.1292,0.1315,0.1319,0.1343,0.1345,0.1346,0.1436,0.1437,0,0,0,0.1162,0.1145,0.1177,0.12,0.1229,0.1232,0.1239,0.1289,0.1303,0.132,0.1344,0.1345,0.1346,0.1436,0.1437,0.1496,0,0,0,0.1158,0.1146,0.1175,0.1165,0.1228,0.1269,0.1242,0.1299,0.1306,0.1344,0.1346,0.1347,0.1435,0.1436,0.1493,0.152,0,0,0,0.1136,0.1144,0.116,0.1165,0.1216,0.1269,0.1284,0.1301,0.1322,0.1344,0.1347,0.1435,0.1436,0.149,0.1516,0.1641,0,0,0,0.1109,0.1162,0.116,0.1216,0.1215,0.1276,0.1284,0.1321,0.1341,0.1346,0.1435,0.1437,0.149,0.1513,0.1637,0.1834,0.1869,0,0,0.1164,0.1168,0.1199,0.1201,0.1265,0.1261,0.1326,0.1352,0.1361,0.141,0.1413,0.1494,0.1516,0.1641,0.19,0.1934,0,0,0,0.1208,0.1222,0.1243,0.1276,0.1313,0.1349,0.1366,0.1396,0.1455,0.1385,0.1501,0.1513,0.1591,0.17,0.1727,0.1833,0.1442,0.1442,0.1442,0.1229,0.1249,0.1296,0.1323,0.1359,0.1406,0.1455,0.1497,0.1486,0.1529,0.1566,0.1706,0.1821,0.1844,0.195,0.1571,0.1572,0.1572,0.1572,0.1277,0.1311,0.1321,0.1375,0.1411,0.1457,0.1546,0.1568,0.1695,0.1634,0.1708,0.1761,0.1878,0.1979,0.1576,0.1575,0.1575,0.1574,0.1574,0.1285,0.1315,0.1327,0.1387,0.145,0.1502,0.163,0.1679,0.1756,0.1826,0.1999,0.2,0.209,0.1886,0.1887,0.1887,0.1888,0.1888,0.1889,0.1305,0.1326,0.1368,0.1412,0.1464,0.155,0.1688,0.1813,0.2024,0.2094,0.2097,0.2172,0.1803,0.1792,0.1899,0.1897,0.1896,0.1895,0.1894,0.136,0.1352,0.1424,0.1467,0.1583,0.1703,0.1807,0.2135,0.2283,0.2447,0.2567,0.2265,0.2281,0.2261,0.2262,0.2484,0.2484,0.2484,0.2485,0.1388,0.1391,0.15,0.1594,0.1704,0.1798,0.2081,0.2337,0.2695,0.2877,0.2866,0.2833,0.2804,0.2845,0.2812,0.2821,0.318,0.3181,0.3182,0.1424,0.1459,0.1551,0.1644,0.1774,0.1925,0.2164,0.2423,0.296,0.321,0.2979,0.295,0.2888,0.2834,0.2877,0.2822,0.2826,0,0]},{"header":{"parameterUnit":"m.s-1","parameterCategory":2,"la1":30.2992,"la2":30.254,"lo1":-89.0895,"lo2":-89.0443,"dy":0.0025,"dx":0.0025,"nx":19,"ny":19,"refTime":"2026-03-20T21:00:00:Z","depth":"0","parameterNumber":3,"parameterNumberName":"V-component_of_CURRENTS"},"data":[0,0,0,0.0956,0.0956,0.0939,0.0939,0.0869,0.0869,0,0,0,0,0,0,0,0,0,0,0,0.0938,0.0938,0.0956,0.0956,0.0939,0.0939,0.0869,0.0869,0,0,0,0,0,0,0,0,0,0,0,0.0938,0.0938,0.0938,0.0956,0.0939,0.0938,0.0869,0.0889,0,0,0,0,0,0,0,0,0,0,0.0909,0.0918,0.0938,0.0938,0.0956,0.0939,0.0938,0.089,0.0888,0.087,0,0.0864,0,0.0884,0.0865,0.0865,0,0,0,0.0935,0.092,0.0913,0.0938,0.0956,0.0939,0.0941,0.0889,0.0886,0.0867,0.0864,0.0862,0.0883,0.0864,0.0864,0.0817,0.0817,0,0,0.0936,0.0936,0.0915,0.0911,0.0947,0.0941,0.094,0.0888,0.0883,0.0864,0.0861,0.0882,0.0864,0.0864,0.0817,0.0817,0,0,0,0.0953,0.0937,0.0932,0.0913,0.0924,0.0941,0.094,0.0885,0.0882,0.0861,0.0881,0.0864,0.0863,0.0817,0.0817,0.0908,0,0,0,0.0952,0.0949,0.0932,0.0933,0.0926,0.0916,0.0939,0.0885,0.0881,0.0881,0.0864,0.0862,0.0817,0.0817,0.0906,0.0969,0,0,0,0.094,0.0949,0.0944,0.0933,0.0938,0.0917,0.0911,0.0884,0.0894,0.0865,0.0862,0.0817,0.0817,0.0904,0.0965,0.1041,0,0,0,0.0944,0.0949,0.0944,0.0947,0.0938,0.0931,0.0911,0.0895,0.087,0.0863,0.0817,0.0817,0.0904,0.0962,0.1038,0.1176,0.1204,0,0,0.0957,0.095,0.0951,0.0947,0.0969,0.0932,0.0941,0.09,0.086,0.0828,0.0827,0.0907,0.0964,0.1041,0.1162,0.1192,0,0,0,0.096,0.0961,0.0964,0.0971,0.0962,0.0977,0.0928,0.0916,0.0893,0.0851,0.0876,0.0909,0.0956,0.1029,0.1052,0.0881,0.0816,0.0816,0.0816,0.0988,0.0983,0.1001,0.0997,0.0998,0.0993,0.1,0.0969,0.0914,0.0915,0.0961,0.1051,0.1127,0.1146,0.0967,0.092,0.092,0.0921,0.0921,0.101,0.1027,0.103,0.1046,0.1064,0.107,0.1074,0.1055,0.1085,0.101,0.105,0.1092,0.1177,0.0976,0.0926,0.0925,0.0925,0.0924,0.0924,0.1031,0.1049,0.104,0.1069,0.1127,0.1141,0.1235,0.1213,0.1183,0.1224,0.1303,0.1303,0.1151,0.1244,0.1245,0.1245,0.1246,0.1246,0.1247,0.1067,0.1066,0.1082,0.1109,0.116,0.1242,0.1329,0.1392,0.1457,0.143,0.143,0.1161,0.115,0.1165,0.1256,0.1254,0.1253,0.1252,0.1252,0.1115,0.109,0.1126,0.1157,0.1269,0.1415,0.1485,0.1687,0.173,0.1797,0.146,0.1538,0.1533,0.1514,0.1537,0.1719,0.1719,0.1719,0.1719,0.1143,0.1134,0.1182,0.1252,0.1368,0.1503,0.1787,0.1951,0.1849,0.1725,0.155,0.1463,0.1452,0.1432,0.1415,0.143,0.1581,0.158,0.158,0.1171,0.1186,0.1235,0.1287,0.1425,0.1633,0.1931,0.216,0.1902,0.1546,0.1282,0.1288,0.1122,0.1118,0.1051,0.1041,0.1054,0,0]}],[{"header":{"parameterUnit":"m.s-1","parameterCategory":2,"la1":30.2992,"la2":30.254,"lo1":-89.0895,"lo2":-89.0443,"dy":0.0025,"dx":0.0025,"nx":19,"ny":19,"refTime":"2026-03-20T21:00:00:Z","depth":"2","parameterNumber":2,"parameterNumberName":"U-component_of_CURRENTS"},"data":[0,0,0,-0.0041,-0.0038,0.0089,0.009,0.0235,0.0236,0,0,0,0,0,0,0,0,0,0,0,-0.0087,-0.0087,-0.0041,-0.0038,0.0089,0.009,0.0234,0.0236,0,0,0,0,0,0,0,0,0,0,0,-0.0088,-0.0087,-0.0086,-0.0038,0.0089,0.009,0.0234,0.0145,0,0,0,0,0,0,0,0,0,0,0.0025,-0.0018,-0.0087,-0.0086,-0.0037,0.0089,0.009,0.0141,0.0151,0.0168,0,0.0181,0,0.0208,0.0244,0.0244,0,0,0,-0.0027,-0.0026,0.0005,-0.0086,-0.0036,0.0089,0.0035,0.0147,0.0158,0.018,0.0184,0.0189,0.0211,0.0245,0.0245,0.0404,0.0404,0,0,-0.0034,-0.0057,-0.0002,0.0012,-0.0011,0.0031,0.0039,0.0154,0.0163,0.0184,0.0193,0.0213,0.0246,0.0247,0.0403,0.0404,0,0,0,-0.0062,-0.0062,-0.0033,0.0005,0.0028,0.0034,0.0043,0.0158,0.0166,0.0195,0.0215,0.0246,0.0248,0.0402,0.0403,0.0471,0,0,0,-0.0065,-0.0079,-0.0037,-0.0048,0.0026,0.0098,0.0045,0.0158,0.0172,0.0214,0.0246,0.0249,0.0401,0.0402,0.0467,0.0491,0,0,0,-0.0092,-0.0082,-0.0071,-0.005,-0.0,0.0096,0.0113,0.0162,0.0184,0.0244,0.0249,0.04,0.0402,0.0464,0.0485,0.0547,0,0,0,-0.0115,-0.0091,-0.0071,-0.0032,-0.0002,0.0086,0.0112,0.019,0.0243,0.0247,0.0401,0.0403,0.0463,0.0482,0.0543,0.0563,0.0582,0,0,-0.0098,-0.009,-0.0065,-0.0044,0.0032,0.007,0.0179,0.0257,0.028,0.0362,0.0366,0.0468,0.0485,0.0546,0.0675,0.069,0,0,0,-0.0067,-0.0043,-0.002,0.0033,0.0088,0.0184,0.0253,0.0304,0.0414,0.0319,0.0489,0.0497,0.0533,0.0539,0.0552,0.0412,0.0412,0.0412,0.0412,-0.0065,-0.0023,0.0038,0.0106,0.0164,0.0276,0.0365,0.0453,0.0456,0.0525,0.0568,0.0681,0.0688,0.0698,0.0589,0.0589,0.0589,0.059,0.059,-0.0019,0.002,0.0094,0.0169,0.026,0.0358,0.0505,0.055,0.0687,0.0658,0.069,0.0629,0.0716,0.0595,0.0594,0.0594,0.0593,0.0593,0.0592,-0.0016,0.0009,0.0073,0.0186,0.0308,0.0421,0.0557,0.0662,0.0748,0.0806,0.0813,0.0811,0.0713,0.0827,0.0828,0.0828,0.0828,0.0829,0.0829,-0.0052,0.0015,0.0082,0.0201,0.0272,0.0396,0.0593,0.0685,0.0831,0.0893,0.0893,0.0761,0.0753,0.0727,0.0835,0.0834,0.0833,0.0833,0.0832,-0.0062,-0.0034,0.0055,0.0123,0.027,0.0364,0.0532,0.0756,0.0876,0.095,0.0948,0.0943,0.0923,0.0912,0.0891,0.1035,0.1035,0.1035,0.1035,-0.0092,-0.0065,0.0039,0.0121,0.0216,0.0346,0.0537,0.0774,0.0965,0.1054,0.1053,0.0997,0.0989,0.0968,0.0955,0.0932,0.1087,0.1087,0.1087,-0.0104,-0.0067,-0.001,0.0088,0.019,0.0317,0.0529,0.0802,0.1019,0.1086,0.1031,0.1044,0.0956,0.0946,0.0903,0.0887,0.0846,0,0]},{"header":{"parameterUnit":"m.s-1","parameterCategory":2,"la1":30.2992,"la2":30.254,"lo1":-89.0895,"lo2":-89.0443,"dy":0.0025,"dx":0.0025,"nx":19,"ny":19,"refTime":"2026-03-20T21:00:00:Z","depth":"2","parameterNumber":3,"parameterNumberName":"V-component_of_CURRENTS"},"data":[0,0,0,-0.0514,-0.0511,-0.0393,-0.0392,-0.0323,-0.0323,0,0,0,0,0,0,0,0,0,0,0,-0.0554,-0.0553,-0.0514,-0.0511,-0.0393,-0.0392,-0.0323,-0.0323,0,0,0,0,0,0,0,0,0,0,0,-0.0554,-0.0553,-0.0552,-0.0511,-0.0393,-0.0392,-0.0323,-0.0393,0,0,0,0,0,0,0,0,0,0,-0.0498,-0.0511,-0.0553,-0.0552,-0.051,-0.0393,-0.0392,-0.0395,-0.0389,-0.0399,0,-0.0372,0,-0.0346,-0.032,-0.0319,0,0,0,-0.0514,-0.0517,-0.0495,-0.0552,-0.0509,-0.0393,-0.0447,-0.0391,-0.0383,-0.0391,-0.0371,-0.0367,-0.0345,-0.0319,-0.0319,-0.0238,-0.0237,0,0,-0.052,-0.0525,-0.05,-0.049,-0.0468,-0.0451,-0.0443,-0.0385,-0.0369,-0.037,-0.0365,-0.0344,-0.0319,-0.0319,-0.0238,-0.0238,0,0,0,-0.0537,-0.053,-0.0507,-0.0493,-0.0465,-0.0447,-0.0439,-0.0372,-0.0366,-0.0364,-0.0343,-0.0319,-0.0318,-0.0239,-0.0238,-0.0215,0,0,0,-0.0541,-0.054,-0.051,-0.0511,-0.0465,-0.0402,-0.0426,-0.037,-0.0363,-0.0344,-0.0319,-0.0318,-0.024,-0.0239,-0.0217,-0.0196,0,0,0,-0.0561,-0.0542,-0.0527,-0.0512,-0.046,-0.0403,-0.0393,-0.0367,-0.035,-0.0319,-0.0318,-0.024,-0.0239,-0.0219,-0.0199,-0.0186,0,0,0,-0.0573,-0.0534,-0.0527,-0.0481,-0.0462,-0.0401,-0.0393,-0.0342,-0.0314,-0.0318,-0.024,-0.0238,-0.022,-0.0201,-0.0188,-0.0294,-0.0295,0,0,-0.0535,-0.0529,-0.0507,-0.0498,-0.044,-0.0418,-0.0346,-0.0307,-0.0298,-0.0267,-0.0264,-0.0217,-0.0199,-0.0186,-0.0218,-0.0221,0,0,0,-0.0504,-0.0482,-0.0466,-0.0426,-0.0393,-0.0333,-0.0298,-0.0276,-0.0226,-0.0273,-0.0196,-0.0185,-0.0178,-0.0246,-0.0247,-0.0232,-0.0232,-0.0232,-0.0232,-0.0459,-0.0448,-0.0399,-0.0371,-0.033,-0.0271,-0.0227,-0.0186,-0.0199,-0.0167,-0.0152,-0.0104,-0.0174,-0.0177,-0.0141,-0.0141,-0.0141,-0.0141,-0.0141,-0.0411,-0.0383,-0.0349,-0.0297,-0.0248,-0.0187,-0.0134,-0.0127,-0.0086,-0.0101,-0.0096,-0.02,-0.0178,-0.0139,-0.0139,-0.0139,-0.014,-0.014,-0.014,-0.0401,-0.0379,-0.0341,-0.0259,-0.0175,-0.0123,-0.0054,-0.0039,-0.0048,-0.0038,-0.0127,-0.0129,-0.0101,-0.0046,-0.0045,-0.0045,-0.0045,-0.0045,-0.0045,-0.0402,-0.036,-0.0295,-0.0213,-0.0152,-0.0076,-0.0009,-0.0004,-0.0054,-0.0095,-0.0097,-0.0072,-0.0075,-0.0095,-0.0042,-0.0043,-0.0043,-0.0043,-0.0043,-0.0379,-0.0351,-0.0267,-0.0203,-0.0081,-0.0027,0.0012,-0.003,-0.0042,-0.0099,-0.0136,-0.0135,-0.0153,-0.0153,-0.0175,-0.0146,-0.0146,-0.0146,-0.0146,-0.036,-0.0343,-0.0216,-0.0127,-0.0049,0.0002,0.0024,-0.0014,-0.0111,-0.0183,-0.018,-0.0226,-0.0223,-0.0246,-0.0245,-0.0268,-0.0263,-0.0263,-0.0263,-0.0326,-0.0295,-0.0204,-0.0113,-0.0028,0.0011,0.0043,0.0082,-0.0086,-0.0259,-0.0119,-0.017,-0.0236,-0.023,-0.0266,-0.0263,-0.0302,0,0]}],[{"header":{"parameterUnit":"m.s-1","parameterCategory":2,"la1":30.2992,"la2":30.254,"lo1":-89.0895,"lo2":-89.0443,"dy":0.0025,"dx":0.0025,"nx":19,"ny":19,"refTime":"2026-03-20T21:00:00:Z","depth":"4","parameterNumber":2,"parameterNumberName":"U-component_of_CURRENTS"},"data":[0,0,0,0.0339,0.0339,0.0362,0.0362,0.0337,0.0337,0,0,0,0,0,0,0,0,0,0,0,0.0332,0.0332,0.0339,0.0339,0.0362,0.0362,0.0337,0.0337,0,0,0,0,0,0,0,0,0,0,0,0.0332,0.0332,0.0332,0.0339,0.0362,0.0362,0.0337,0.0334,0,0,0,0,0,0,0,0,0,0,0.0319,0.0321,0.0332,0.0332,0.034,0.0362,0.0362,0.0334,0.0334,0.031,0,0.0315,0,0.0323,0.0333,0.0333,0,0,0,0.0341,0.0321,0.0325,0.0332,0.034,0.0362,0.0352,0.0335,0.0334,0.031,0.0315,0.0315,0.0322,0.0333,0.0333,0.0312,0.0312,0,0,0.034,0.0336,0.0326,0.0325,0.0346,0.0352,0.0353,0.0335,0.0334,0.0315,0.0314,0.0322,0.0333,0.0332,0.0311,0.0312,0,0,0,0.0335,0.0336,0.0341,0.0326,0.0333,0.0352,0.0354,0.0335,0.0337,0.0314,0.0321,0.0333,0.0332,0.0311,0.0311,0.0338,0,0,0,0.0334,0.0333,0.0341,0.0339,0.0333,0.0342,0.0355,0.0338,0.0337,0.0322,0.0333,0.0332,0.0311,0.0311,0.0337,0.0356,0,0,0,0.0331,0.0332,0.0335,0.0339,0.0348,0.0343,0.0344,0.0339,0.034,0.0333,0.0331,0.0311,0.0311,0.0336,0.0354,0.0383,0,0,0,0.0326,0.0329,0.0335,0.034,0.0347,0.0354,0.0344,0.0348,0.0345,0.0332,0.0311,0.0311,0.0336,0.0353,0.0381,0.0352,0,0,0,0.0326,0.0329,0.0332,0.0338,0.034,0.0351,0.0355,0.0348,0.0339,0.0313,0.0313,0.0337,0.0354,0.0382,0.0368,0,0,0,0,0.0329,0.033,0.0332,0.0337,0.0343,0.0357,0.0353,0.0351,0.0349,0.0338,0.0335,0.0345,0.0362,0.0341,0.0313,0.0313,0.0313,0.0313,0.0313,0.0309,0.032,0.0324,0.0337,0.0345,0.0357,0.0367,0.0364,0.035,0.0359,0.0365,0.0403,0.038,0.0359,0.0359,0.0359,0.0359,0.0359,0.0359,0.0295,0.0294,0.0319,0.0329,0.0349,0.0361,0.0377,0.0382,0.04,0.0383,0.0399,0.0367,0.0362,0.0361,0.0361,0.0361,0.036,0.036,0.036,0.0264,0.0268,0.0287,0.0312,0.0342,0.037,0.0403,0.0419,0.0431,0.0449,0.0439,0.0428,0.0428,0.0466,0.0467,0.0467,0.0467,0.0467,0.0467,0.0221,0.0243,0.0257,0.0293,0.0319,0.0361,0.0424,0.0455,0.0485,0.0473,0.0471,0.0439,0.0436,0.0435,0.0471,0.047,0.047,0.0469,0.0469,0.0177,0.0194,0.0217,0.0241,0.0297,0.033,0.0399,0.048,0.0514,0.0532,0.0482,0.048,0.0472,0.0468,0.0468,0.0515,0.0515,0.0514,0,0.0141,0.0152,0.0186,0.0219,0.0258,0.0309,0.0373,0.0436,0.048,0.0454,0.0495,0.0433,0.0433,0.0418,0.0414,0.041,0,0,0,0.0111,0.0135,0.0149,0.0195,0.024,0.0317,0.039,0.0414,0.0458,0.0523,0.0509,0.051,0.0499,0.048,0.0464,0.046,0.0458,0,0]},{"header":{"parameterUnit":"m.s-1","parameterCategory":2,"la1":30.2992,"la2":30.254,"lo1":-89.0895,"lo2":-89.0443,"dy":0.0025,"dx":0.0025,"nx":19,"ny":19,"refTime":"2026-03-20T21:00:00:Z","depth":"4","parameterNumber":3,"parameterNumberName":"V-component_of_CURRENTS"},"data":[0,0,0,-0.0521,-0.0522,-0.0556,-0.0556,-0.0593,-0.0594,0,0,0,0,0,0,0,0,0,0,0,-0.0516,-0.0516,-0.0521,-0.0522,-0.0556,-0.0556,-0.0593,-0.0594,0,0,0,0,0,0,0,0,0,0,0,-0.0516,-0.0516,-0.0517,-0.0522,-0.0556,-0.0556,-0.0593,-0.057,0,0,0,0,0,0,0,0,0,0,-0.0538,-0.0534,-0.0516,-0.0517,-0.0522,-0.0556,-0.0556,-0.0569,-0.0571,-0.0575,0,-0.0586,0,-0.0587,-0.0596,-0.0596,0,0,0,-0.0524,-0.0532,-0.0539,-0.0517,-0.0522,-0.0556,-0.0541,-0.057,-0.0573,-0.0579,-0.0586,-0.0587,-0.0587,-0.0596,-0.0596,-0.0623,-0.0624,0,0,-0.0522,-0.0523,-0.0537,-0.0541,-0.0538,-0.054,-0.0542,-0.0572,-0.0579,-0.0586,-0.0588,-0.0588,-0.0596,-0.0596,-0.0623,-0.0624,0,0,0,-0.0515,-0.0522,-0.0528,-0.0539,-0.0544,-0.0541,-0.0543,-0.0577,-0.0579,-0.0589,-0.0588,-0.0596,-0.0597,-0.0623,-0.0623,-0.0622,0,0,0,-0.0514,-0.0517,-0.0528,-0.0529,-0.0543,-0.0562,-0.0548,-0.0578,-0.0581,-0.0588,-0.0596,-0.0597,-0.0623,-0.0623,-0.0622,-0.0618,0,0,0,-0.0513,-0.0517,-0.0523,-0.0529,-0.0541,-0.0561,-0.0565,-0.0578,-0.058,-0.0596,-0.0597,-0.0623,-0.0623,-0.0622,-0.0618,-0.0617,0,0,0,-0.051,-0.0502,-0.0523,-0.051,-0.0541,-0.054,-0.0565,-0.0573,-0.0584,-0.0596,-0.0623,-0.0623,-0.0622,-0.0618,-0.0617,-0.0495,0,0,0,-0.0489,-0.0499,-0.0488,-0.0507,-0.0501,-0.0535,-0.0538,-0.0568,-0.0589,-0.0613,-0.0614,-0.0622,-0.0618,-0.0617,-0.0505,0,0,0,0,-0.0473,-0.0472,-0.047,-0.0478,-0.0487,-0.0515,-0.0543,-0.0566,-0.0604,-0.0596,-0.0625,-0.0623,-0.0622,-0.0552,-0.0624,-0.0624,-0.0624,-0.0624,-0.0624,-0.0457,-0.0456,-0.0451,-0.046,-0.0471,-0.0506,-0.0531,-0.0574,-0.059,-0.0613,-0.0624,-0.0626,-0.0551,-0.0629,-0.0629,-0.0629,-0.0629,-0.0629,-0.0629,-0.0438,-0.044,-0.0455,-0.0455,-0.0487,-0.0508,-0.0547,-0.0571,-0.0612,-0.0627,-0.0626,-0.0558,-0.0629,-0.0629,-0.0629,-0.0629,-0.0629,-0.0629,-0.0629,-0.0445,-0.0446,-0.0454,-0.0469,-0.0498,-0.0523,-0.0535,-0.0575,-0.0613,-0.062,-0.0545,-0.0624,-0.0621,-0.0622,-0.0622,-0.0622,-0.0622,-0.0622,-0.0622,-0.0455,-0.0457,-0.0465,-0.0481,-0.0494,-0.0512,-0.0534,-0.0536,-0.0571,-0.0528,-0.062,-0.0623,-0.0624,-0.0621,-0.0622,-0.0622,-0.0622,-0.0622,-0.0622,-0.0449,-0.046,-0.0457,-0.0465,-0.0474,-0.0471,-0.0493,-0.0445,-0.0441,-0.0423,-0.0477,-0.0484,-0.0472,-0.0476,-0.0468,-0.0424,-0.0422,-0.042,0,-0.0447,-0.0452,-0.0441,-0.0435,-0.0422,-0.0438,-0.0361,-0.0356,-0.0384,-0.0372,-0.0487,-0.0553,-0.0556,-0.0548,-0.0549,-0.0542,0,0,0,-0.0436,-0.0433,-0.042,-0.0417,-0.0395,-0.0342,-0.0337,-0.0302,-0.0378,-0.0308,-0.0381,-0.0391,-0.0519,-0.0621,-0.0621,-0.0621,-0.0616,0,0]}]]